Reflectivity
-11 -20 -20 -20 3 10 10 12 20 7 28 30 21 -4 -8 -20 21 21 -0 -20 -20 -20 -20 -20 -20 -20 -20 -20 -20 -20 -20 -20 -20 -20 2 -20 -7 -20 -20 -20 -20 -20 -20 -20 -20 -2 -20 -20 -20 -20 -20 -20 -20 -20
-14 0 2 11 11 6 13 24 36 26 37 28 -9 6 -20 -19 3 26 8 -20 -20 -20 -20 -20 -20 -20 -20 -20 -20 -20 -20 -20 -20 -19 -14 -20 6 9 -20 -20 -20 -20 -20 -20 -20 -20 -20 -20 -20 -20 -20 -20 -20 -20
20 24 33 36 24 27 27 28 25 39 26 18 -7 -20 -5 -15 17 26 16 -20 -20 -20 -20 -20 -20 -20 -20 -20 -20 -20 -20 -20 -20 -20 -20 -20 14 -20 -20 -20 -20 -20 -20 -20 -20 -20 -20 -20 -20 -20 -20 -20 -20 -20
36 32 33 37 29 27 33 28 10 19 4 -20 -19 13 13 -16 20 22 -20 -20 -20 -20 11 -15 -20 -20 -20 -20 -20 -20 -20 -20 -20 -20 -20 -5 8 -20 -20 -20 -20 -20 -20 -20 -20 -20 -20 -20 -20 -20 -20 -20 -20 -20
28 33 32 35 25 18 18 23 15 7 -9 -20 -20 12 11 -20 -13 26 -19 -20 -20 -20 -11 1 -20 -20 -20 -20 -20 -20 -20 -20 -20 -20 11 -8 -20 -20 -20 -20 -20 -20 -20 -20 -20 -20 -20 -20 -20 -20 -20 -20 -20 -20
25 25 13 13 14 13 9 -20 -20 -20 -20 -20 -0 -20 -20 -6 -5 -20 24 -19 9 -20 -15 3 -20 -20 -20 -20 -20 -20 -20 -20 -20 -20 -20 -20 -20 -20 8 -20 -20 -20 -20 -20 -20 -20 -20 -20 -20 -20 -20 -20 -20 -20
16 9 7 6 20 23 -3 -20 -15 0 -9 -5 -20 -20 -20 -1 -4 -6 -19 -20 -3 -7 -20 -3 -5 -20 -20 -20 -20 -20 -20 -20 -20 -20 -20 -20 -20 -20 4 5 -20 -20 -20 -20 -20 -20 -20 -20 -20 -20 -20 -20 -20 -7
4 8 24 13 12 21 22 26 24 6 -12 -20 -20 -20 -20 19 25 7 -20 27 15 -20 -20 6 -19 17 -20 -17 -12 -20 -20 -20 -20 -20 -20 -20 -20 -20 -20 -20 -20 -20 -20 -20 -20 -20 -20 -20 -20 -20 -20 -20 -20 -20
18 -1 -12 -14 4 21 25 21 -20 -19 -20 -20 -19 -20 -19 -20 -4 -20 9 23 4 -20 -20 9 6 1 -20 -16 -13 -19 -20 -20 -19 2 -16 -20 -20 -20 -20 -20 -20 -20 -20 -20 -20 -20 -20 -20 -13 -19 -20 -20 -20 -20
15 13 -6 16 -13 -8 -3 -19 16 -20 30 -3 -19 -18 24 8 -20 -20 10 24 -17 -20 -20 -20 -20 -20 -15 -12 -14 -20 -20 -19 -20 -3 -11 -5 -20 -20 -20 -20 -20 -20 -20 -20 -20 -20 -5 -20 -20 -20 1 -3 -20 -20
-2 10 25 27 24 -12 -20 -18 -20 -20 -20 -20 -20 1 -8 21 31 23 12 10 1 -8 -20 -20 -20 -20 -20 -16 -19 -20 4 -17 -20 -15 -10 -13 -20 -16 -20 -20 -20 -20 -20 -20 -20 -20 -17 -16 -7 -10 -6 -5 -11 -20
-20 -20 -20 -6 28 22 -18 -19 -19 -20 -18 11 4 31 26 -18 -18 12 -10 -11 -20 -20 -11 -3 -11 -10 -11 -20 -20 -3 -20 -16 -20 -11 8 8 -6 -20 -15 -4 -6 -20 -20 -20 -20 -20 -14 -19 -20 -20 -20 -20 -20 -20
-5 -20 -20 -16 -3 14 28 17 -9 -20 -20 -20 -7 -2 -19 6 14 -0 -17 -13 -19 -20 1 10 12 -4 -3 -20 -6 -7 11 5 -20 -2 -4 -19 -17 -1 0 0 -18 -18 -20 -20 -20 -20 -20 -20 -20 -20 -20 -20 -20 -20
-20 -20 -20 -20 -20 -17 8 20 29 9 18 6 15 5 10 -4 -20 -6 -18 -20 -18 -6 -7 -20 -17 -18 -6 4 4 14 -3 -19 4 8 -1 -5 -11 -1 3 -6 -20 -20 -20 -20 -20 -20 -20 -20 -20 -20 -20 -20 -20 -20
-20 -20 -17 -20 -20 -20 -20 -20 -17 14 17 4 -19 -10 -14 -11 -10 -10 -4 -14 -20 -20 -8 -20 -20 -13 -18 -3 -7 -10 -2 -6 2 5 -4 -15 4 7 -8 -18 -20 -20 -20 -20 -20 -20 -20 -20 -20 -20 -20 -20 -20 -20
-6 -13 -20 -5 -20 -20 -20 -20 -20 -15 1 20 7 -17 -19 -17 -5 -3 2 4 -15 -20 -20 -20 -0 2 -7 -20 -16 4 8 7 -19 -0 -8 -1 14 7 2 -20 -4 -4 -20 -20 -20 -20 -20 -20 -20 -20 -20 -20 -20 -20
-20 -20 -20 -14 -6 -1 -5 -20 -11 -0 12 3 4 18 14 8 -4 6 12 1 -8 -6 6 -20 5 -1 -19 -15 2 -11 11 1 -1 1 -18 -1 -13 -9 -5 -13 -20 -20 -20 -20 -20 -20 -20 -20 -20 -20 -20 -20 -20 -20
-20 -20 -20 -20 -20 -20 14 13 28 14 -0 15 -2 1 16 21 23 17 26 19 19 25 29 25 -5 13 16 6 -2 -16 -5 3 3 -20 -20 -20 2 8 6 -11 -20 -20 -20 -20 -20 -20 -20 -20 -20 -20 -20 -20 -20 -20
-20 -20 -20 -20 -20 -20 -16 4 5 10 2 4 10 -1 0 9 8 -2 -11 -15 -10 7 13 14 17 16 11 -8 -12 -20 8 -13 -7 -19 -13 -12 -3 -18 -20 -20 -20 -20 -20 -20 -20 -20 -20 -20 -20 -20 -20 -20 -20 -20
-20 -20 -20 -20 -20 -20 -20 -20 -18 -19 0 -2 4 -3 2 2 1 12 -3 -19 -20 -20 -13 -6 -0 1 -5 -6 2 -19 -20 -18 -20 -20 -18 -1 0 -13 -20 -20 -20 -20 -20 -20 -20 -20 -20 -20 -20 -20 -20 -20 -20 -20
-20 -20 -20 -20 -20 -20 -20 3 -11 -6 -2 -11 0 -20 -2 1 1 3 -20 -13 -20 -0 2 6 -14 -0 -20 -20 -20 4 5 7 -0 -20 -20 -20 -20 -19 -19 -20 -20 -20 -20 -20 -20 -20 -20 -20 -20 -20 -20 -20 -20 -20
-20 -20 -20 -20 -20 -20 -16 -20 1 2 4 5 -17 -20 2 8 6 -1 -12 3 3 7 1 -0 3 -1 -20 -20 -20 -20 13 18 7 -18 -12 -19 -20 -20 -20 -20 -20 -20 -20 -20 -20 -20 -20 -20 -20 -20 -20 -20 -20 -20
-20 -20 -20 -19 -15 -20 -20 -4 -3 0 5 2 -9 3 3 1 5 -1 6 7 9 7 4 -4 2 3 1 3 -16 -20 -20 -19 -17 -4 -8 -12 -13 -20 -20 -20 -20 -20 -20 -20 -20 -20 -20 -20 -20 -20 -20 -20 -20 -5
-20 -20 -19 -20 -20 -20 -20 -17 -3 -2 -2 -20 1 8 -15 -7 1 7 8 1 6 -14 4 9 4 -2 -3 -11 2 4 7 8 10 7 6 7 -2 -20 -20 -20 -20 -20 -20 -20 -20 -20 -20 -20 -20 -20 -20 -20 -7 -5
-20 -20 -20 -20 -20 -20 -20 -20 -3 3 2 4 9 11 8 -8 7 3 5 3 0 0 -1 5 -1 1 -0 3 6 10 10 5 2 5 2 1 -3 -17 -20 -20 -20 -20 -20 -20 -20 -20 -20 -20 -20 -20 -20 -7 -5 -5
-20 -17 -19 -14 -15 -17 -3 -2 -4 -4 0 5 -5 -9 -2 13 0 -2 -2 1 0 -1 -0 -0 7 -11 -19 -16 -14 -10 -9 2 -0 1 2 -6 -16 -20 -20 -20 -20 -20 -20 -6 -10 -20 -20 -20 -20 -20 -20 -4 -2 1
-20 -5 -10 -20 -16 -20 -1 -14 -17 -1 1 -2 -7 7 11 7 -0 0 4 -0 3 -1 -3 -2 -15 -13 -4 -15 -20 -3 -8 -19 -19 -20 -20 -20 -20 -20 -20 -20 -20 -20 -20 -20 -20 -18 -17 -20 -7 -5 -3 -1 1 1
-19 -18 -5 -20 -20 -13 -4 -1 -9 -11 6 -2 3 -4 -17 -12 -14 1 2 4 2 -3 -4 -12 -20 -20 -20 -2 2 2 -7 -20 -20 -20 -20 -20 -20 -20 -20 -10 -6 -20 -20 -6 -20 -15 -3 -2 -1 1 1 2 0 1
-19 -20 -18 -20 -3 -5 -7 -17 -20 -20 -2 -19 3 -8 -2 -4 2 4 0 4 5 7 2 2 -1 -1 -3 -18 -20 -20 -20 -20 -20 -20 -20 -20 -20 -8 -20 -6 -4 -2 -1 -2 -17 -13 -2 -2 -1 1 -0 1 2 2
-9 -16 -2 -20 -20 -18 -13 -10 5 -9 -14 -7 -17 -20 -13 -0 2 3 0 -1 -2 -2 0 0 -0 -1 -9 -1 -8 -20 -20 -20 -20 -20 -20 -20 -20 -7 -3 -0 0 0 1 2 1 -0 -10 -1 -1 1 2 1 2 -0
2 -0 -1 1 -20 -10 -7 -2 1 -6 -3 -8 -7 -7 -9 -1 2 -1 -1 1 -1 -1 1 -0 -20 -4 -20 -20 -20 -20 -20 -15 -20 -20 -20 -20 -5 -1 2 1 3 2 2 2 1 1 0 -2 -0 0 0 -1 -5 -9
-6 -13 -18 -18 -9 -9 -2 -8 -3 6 7 4 -1 -4 -1 1 -3 1 -3 3 2 -2 -20 -3 -3 -20 -20 -20 -20 -20 -20 -20 -20 -20 -20 -4 -2 0 1 1 1 2 2 1 0 0 1 -1 -1 -1 -1 -2 -19 -20
-3 -1 -6 -6 -2 0 -2 -8 -18 -0 0 -1 -1 -1 -4 -0 -12 2 -1 -1 0 0 0 0 0 -1 -18 -20 -20 -20 -20 -13 -20 -17 -20 -20 -20 -18 -14 0 2 2 1 1 -0 0 0 -1 -2 -3 -20 -20 -20 -20
Wind_Speed
20 19 18 19 19 19 17 17 20 25 22 25 28 26 25 23 20 14 6 5 4 6 7 2 5 14 7 12 8 11 7 2 3 3 3 3 1 4 2 2 6 7 7 4 3 2 5 6 6 2 6 7 8 9
17 17 16 16 15 13 19 20 21 25 25 25 25 26 25 21 21 22 5 1 7 5 8 7 9 9 5 5 6 12 3 12 7 5 0 3 2 1 3 4 3 4 4 1 6 1 5 4 4 4 5 7 8 10
15 14 14 14 24 21 23 22 21 22 22 24 23 23 21 20 22 18 2 1 4 5 6 6 6 7 7 6 5 5 2 5 5 3 4 3 3 4 4 5 2 3 2 3 1 3 0 3 3 3 7 8 11 11
14 16 18 19 19 20 19 19 21 22 23 23 23 21 19 20 21 14 3 2 2 6 5 5 3 3 6 2 1 3 10 6 9 4 3 4 3 4 3 2 3 4 6 5 5 8 4 2 8 9 10 9 10 11
19 19 17 15 16 16 17 16 16 17 18 19 18 19 20 20 16 6 0 3 5 3 4 6 9 6 3 4 6 7 11 9 5 4 3 3 3 4 2 0 3 2 2 3 2 6 5 8 12 10 9 10 10 10
20 19 17 16 15 14 14 15 15 16 17 18 20 21 23 20 16 8 5 4 4 4 5 5 4 5 8 9 10 8 6 3 3 4 3 3 3 2 4 4 5 5 3 4 4 8 5 6 10 11 13 14 16 16
20 20 20 19 19 16 14 13 15 17 19 21 22 23 23 15 5 3 1 4 1 1 4 5 5 4 2 5 3 4 5 3 2 4 3 3 3 3 3 4 6 3 2 4 6 8 9 11 8 13 14 15 18 18
24 24 22 21 21 21 21 20 23 23 23 23 23 22 19 19 12 3 5 9 3 2 1 5 4 4 5 3 3 4 2 3 6 3 2 3 3 1 3 6 4 5 9 7 7 10 11 11 11 13 14 15 16 14
22 21 19 19 20 22 21 20 23 25 24 22 20 19 9 2 2 4 5 4 2 4 2 4 6 5 2 3 3 2 2 4 1 2 2 3 2 2 4 5 5 6 4 6 10 10 10 12 13 13 13 11 11 7
22 19 21 17 19 18 14 12 14 14 15 14 7 4 4 3 5 4 10 4 0 3 5 5 1 5 0 2 2 2 2 3 3 2 3 2 3 6 4 3 3 3 2 11 12 9 11 12 12 12 10 8 7 6
23 24 22 21 19 18 10 8 10 12 7 3 4 4 2 6 2 1 1 0 1 3 4 3 2 6 2 3 4 2 3 1 4 3 3 3 3 4 4 4 4 4 6 9 13 11 11 12 9 7 7 7 6 5
23 24 23 22 22 19 18 21 13 9 4 3 7 6 2 2 3 5 1 1 3 3 2 2 3 4 3 1 4 2 3 2 3 6 2 3 4 8 8 9 10 13 14 15 12 12 10 8 6 7 6 6 7 6
23 23 23 22 20 19 20 22 14 11 8 3 4 6 3 4 5 3 4 2 3 2 1 2 4 2 3 3 3 3 3 2 3 2 3 2 7 7 10 11 11 10 10 10 10 9 8 8 8 7 7 7 2 7
19 21 24 23 21 20 17 11 7 6 8 7 6 6 5 3 4 4 4 3 2 1 2 5 3 3 1 3 0 3 1 2 3 4 3 5 9 9 7 11 11 11 4 7 8 8 7 7 8 7 5 5 5 7
18 20 16 24 17 17 15 16 17 9 7 7 5 5 5 2 3 2 0 2 2 1 1 4 3 3 3 4 2 4 3 4 4 0 3 7 9 9 8 11 11 9 4 5 7 7 5 5 7 8 7 6 6 6
6 9 14 19 14 16 12 8 8 5 5 4 6 3 2 2 3 3 4 3 4 2 2 2 3 2 2 3 3 3 3 2 3 3 6 10 9 9 10 8 8 6 7 6 7 8 8 6 4 6 5 6 4 5
9 6 18 15 10 8 14 6 5 7 5 4 4 3 2 4 3 2 3 2 3 2 3 1 2 3 3 2 3 1 2 3 6 6 6 11 11 10 9 8 6 6 7 7 7 7 7 5 4 4 4 6 6 5
7 8 15 12 6 5 5 6 4 4 6 4 3 3 2 3 2 3 2 2 2 2 2 2 1 2 1 3 3 3 3 6 7 7 7 9 11 11 9 8 8 7 8 7 6 6 5 3 2 4 5 6 6 6
8 12 16 13 6 4 5 5 4 5 5 3 2 3 3 3 3 4 3 3 2 2 3 1 1 2 3 5 4 4 6 5 6 5 5 5 6 6 8 9 9 8 7 6 5 4 5 6 5 5 5 6 6 6
3 19 19 9 7 5 6 4 3 5 4 3 3 3 3 3 2 2 4 4 3 2 6 5 5 4 4 4 4 2 6 7 8 7 6 5 5 8 9 7 5 7 6 7 6 4 3 3 4 5 5 6 6 7
7 10 11 6 6 8 5 4 5 4 3 4 2 2 3 2 3 4 5 6 4 5 4 5 4 4 4 4 5 6 5 2 4 4 7 7 6 7 6 6 5 4 4 4 3 4 4 4 5 5 5 5 6 6
6 10 4 7 6 5 5 7 3 2 3 3 2 2 3 2 3 4 4 4 4 4 4 4 5 4 6 9 8 8 6 9 10 9 11 9 7 6 6 4 4 5 5 4 4 4 4 5 5 5 5 6 6 6
5 5 5 7 6 6 3 4 4 4 3 2 2 3 3 3 4 3 3 4 5 5 6 5 7 8 8 9 10 12 10 8 7 7 7 7 7 7 6 6 5 4 4 5 4 4 4 3 4 5 5 6 7 7
4 7 7 6 7 4 1 4 3 3 3 2 2 3 3 3 3 3 4 4 5 6 7 6 3 4 6 9 8 8 8 6 7 7 5 6 6 7 6 6 6 6 5 4 4 4 4 4 4 6 6 7 7 7
7 8 5 6 4 3 4 3 4 3 4 3 2 3 2 2 2 3 4 3 6 7 8 7 7 6 6 6 6 7 11 7 6 7 7 6 6 5 5 5 6 6 5 4 4 5 5 5 5 6 8 7 8 9
8 9 6 5 4 4 4 3 4 4 3 3 4 2 1 0 3 4 4 5 5 6 7 8 6 5 7 7 6 6 7 6 5 7 6 6 6 4 4 3 2 5 5 5 5 6 7 7 7 9 8 9 8 9
6 6 4 3 2 2 3 3 2 2 3 4 3 2 2 1 4 4 4 6 4 5 6 7 7 7 6 6 6 6 6 8 8 7 6 6 6 7 6 5 5 5 5 6 6 7 8 8 8 8 9 9 8 8
5 5 4 4 3 3 3 3 3 4 3 4 3 4 4 6 5 4 5 5 4 4 5 6 7 7 6 6 5 5 5 4 5 4 5 5 5 5 5 4 4 3 4 4 6 6 7 8 9 10 9 9 8 7
4 3 2 3 3 4 4 4 3 3 4 4 4 3 4 4 4 4 5 4 4 4 4 4 5 4 5 5 6 6 6 6 5 5 5 4 3 4 5 5 5 5 5 6 7 6 8 8 9 8 9 8 7 7
4 3 2 3 3 3 3 4 3 4 5 4 4 4 4 4 5 5 5 5 5 5 5 5 4 5 5 4 4 5 6 6 7 6 5 5 6 6 5 5 5 6 6 6 7 8 8 7 8 6 5 6 6 6
3 3 2 3 3 3 4 3 2 4 3 4 6 5 6 4 4 6 6 5 4 4 4 4 5 6 6 6 6 5 3 5 6 6 5 5 5 6 5 6 6 6 6 7 7 8 8 8 8 8 8 8 8 7
3 4 3 2 3 3 3 2 2 2 3 2 3 3 3 3 4 4 5 6 4 5 5 5 5 5 5 4 4 3 2 4 5 5 7 6 7 7 7 6 6 5 7 7 8 8 8 9 8 9 8 9 8 8
1 2 2 2 0 1 3 3 1 3 2 3 3 3 4 5 5 3 3 5 5 5 5 5 5 4 4 4 5 4 4 4 6 7 7 7 7 7 7 7 7 7 8 8 9 9 9 10 9 9 9 8 8 8
Wind_Direction
182 185 193 202 202 187 187 194 208 200 203 193 178 182 187 190 181 184 278 287 259 87 99 210 183 196 186 194 153 133 142 172 169 160 177 172 142 201 215 172 176 174 167 187 175 206 269 129 141 304 16 323 345 328
188 190 196 185 204 225 217 208 194 182 169 171 177 182 186 177 177 183 256 237 51 76 87 74 56 31 5 338 184 173 246 152 170 151 104 93 135 39 341 220 173 212 223 244 208 193 96 190 352 343 330 317 324 319
177 170 192 216 240 206 183 175 163 163 171 174 173 175 174 166 184 181 278 156 95 106 121 163 121 68 29 4 349 155 207 134 163 7 138 117 150 176 165 232 144 207 132 228 312 117 244 308 324 6 353 338 328 325
198 207 206 149 134 142 158 162 169 168 165 165 166 165 161 161 176 199 267 320 57 74 113 101 149 68 333 226 133 358 110 86 116 141 122 131 130 230 189 319 224 11 160 232 240 290 344 104 50 4 336 328 336 342
102 102 100 102 118 135 146 152 154 155 157 158 156 151 154 158 150 203 261 10 23 344 129 125 121 32 40 118 126 131 142 141 147 124 116 139 107 131 91 182 198 212 40 214 230 48 349 334 26 360 12 17 16 16
90 94 99 111 115 121 134 144 152 153 151 153 158 154 155 155 149 190 162 58 29 0 121 133 103 68 75 92 93 107 116 115 141 96 120 95 66 222 157 196 94 78 37 359 326 347 353 21 55 47 56 46 54 57
82 79 78 79 79 85 98 114 131 137 142 149 151 151 156 134 173 307 59 92 94 38 121 111 123 105 44 135 54 88 75 83 67 106 77 133 125 206 175 196 114 55 353 58 355 323 113 42 67 69 74 79 80 79
68 64 69 77 81 81 82 100 111 115 120 124 123 121 105 101 125 113 53 60 71 267 159 117 101 126 355 87 99 342 65 85 29 92 103 108 104 355 185 99 80 35 93 57 56 59 75 81 84 85 90 100 93 93
70 63 61 65 69 69 70 82 91 103 104 104 110 125 129 35 109 75 338 72 34 308 107 95 132 147 93 78 58 64 31 73 88 84 113 127 151 166 95 123 85 55 63 106 77 84 90 93 99 109 113 113 106 107
54 51 48 46 63 56 61 89 106 108 110 125 129 103 91 39 308 284 27 335 68 67 29 84 70 109 184 145 91 97 45 139 152 91 134 49 95 102 91 78 45 28 114 129 110 107 116 118 126 130 111 106 112 87
49 50 44 39 46 33 27 84 117 139 139 61 83 73 78 51 64 218 144 17 99 70 40 67 67 121 11 121 115 359 104 126 162 139 213 158 177 145 133 108 81 85 88 117 113 128 123 114 108 119 106 75 61 34
55 53 47 42 39 21 37 44 39 57 45 91 89 83 156 208 77 78 29 3 42 91 79 87 79 94 93 149 104 160 105 157 158 147 188 206 115 127 139 130 123 108 108 112 117 115 117 109 84 74 78 76 60 60
58 55 48 40 39 43 34 40 53 112 184 112 81 62 11 342 62 110 165 86 96 99 113 141 91 75 107 70 77 108 165 129 157 157 215 57 134 138 144 131 123 116 114 116 114 103 98 86 72 77 83 62 12 64
51 51 47 38 29 28 41 61 33 52 42 52 31 43 18 55 56 28 15 48 56 57 97 97 75 74 112 81 58 139 69 170 196 214 191 141 154 143 138 148 145 123 67 114 111 103 104 109 99 89 79 76 47 37
54 47 40 23 19 25 27 35 28 47 41 48 21 50 59 71 53 24 331 99 32 27 29 103 76 68 60 107 70 123 157 212 234 98 118 133 136 139 148 158 125 129 140 152 119 105 98 116 120 103 79 53 52 40
16 42 18 357 16 22 19 43 37 62 60 60 41 74 19 54 33 24 21 47 5 0 297 64 99 92 89 120 159 192 205 195 122 103 125 133 138 149 160 128 139 134 133 122 118 118 107 91 92 91 78 53 22 46
50 40 347 348 359 23 27 64 48 47 55 48 54 13 26 60 50 38 24 18 320 13 56 30 109 59 126 146 142 337 42 71 103 118 132 141 144 140 128 135 131 138 135 121 113 100 95 96 104 82 34 25 356 14
46 19 6 2 359 46 38 42 70 62 65 39 64 22 48 22 66 57 44 348 353 67 355 53 114 132 191 139 117 114 95 93 104 120 122 130 142 145 158 150 141 134 101 103 111 115 102 120 90 46 13 5 338 357
51 21 13 8 358 71 63 45 20 81 54 45 54 25 41 65 39 38 13 15 48 37 124 49 34 48 55 35 81 120 124 116 115 92 78 67 118 124 124 92 97 127 136 136 135 98 92 62 44 22 12 355 347 350
40 22 1 353 360 75 68 37 28 65 61 56 34 35 43 33 4 334 5 16 18 33 44 32 27 22 15 21 357 108 114 129 126 120 107 102 109 117 124 142 134 125 120 115 87 32 80 84 47 18 17 351 341 342
21 357 345 11 50 55 62 23 61 49 86 64 29 39 60 23 34 20 16 350 58 30 52 35 59 60 51 28 22 27 36 117 133 139 143 136 125 117 111 102 102 99 101 74 63 85 45 34 19 2 349 343 349 318
5 331 33 22 69 57 61 20 42 48 59 74 56 29 52 39 44 23 312 48 55 41 22 2 15 31 56 43 49 59 66 80 82 78 88 109 126 125 117 109 114 96 81 59 49 45 28 28 15 345 333 344 315 326
327 21 45 26 72 48 42 323 64 15 63 55 17 63 57 49 16 317 77 63 66 9 26 36 50 58 68 59 49 44 42 70 79 81 82 88 93 98 98 80 65 80 89 60 29 28 24 354 7 333 330 331 328 336
40 45 34 40 35 68 55 42 30 55 65 38 57 71 45 33 325 44 66 59 28 13 20 38 57 103 87 62 52 40 33 54 74 73 78 106 98 84 83 84 76 64 42 33 27 8 2 348 334 336 343 328 332 331
60 19 5 48 23 55 58 52 26 52 63 37 91 89 71 291 63 53 58 62 36 29 13 27 44 47 69 79 73 56 30 40 70 73 42 65 99 106 94 86 76 59 26 11 13 349 348 341 337 341 333 323 329 323
67 27 35 26 36 32 29 61 43 33 32 49 60 58 288 49 72 67 64 24 33 22 13 5 11 65 57 35 49 42 25 14 83 83 58 41 37 52 65 62 57 97 30 10 349 339 334 339 333 327 317 317 314 309
60 45 43 44 36 66 97 79 74 51 49 35 38 358 277 119 88 77 101 27 33 35 27 20 24 44 57 64 62 53 49 45 55 76 81 67 58 46 40 35 31 28 345 2 343 337 330 323 317 316 312 308 316 324
54 31 47 12 59 38 72 47 37 33 39 1 302 24 18 19 63 53 44 42 54 64 64 58 52 48 50 46 51 62 69 88 103 112 121 108 76 72 53 36 60 12 325 357 342 319 320 314 308 303 309 316 315 314
45 10 2 35 34 55 41 32 46 47 0 329 341 65 76 57 22 20 29 11 10 33 54 64 66 80 84 80 59 44 36 18 24 39 30 23 22 61 22 4 347 343 340 330 325 316 318 310 307 313 311 306 309 302
41 346 34 42 36 60 62 13 45 67 41 47 93 122 108 96 48 22 33 35 41 49 49 43 36 41 35 40 66 68 53 39 30 17 3 2 356 349 330 330 335 334 329 323 323 319 307 320 305 284 284 299 305 328
349 345 59 38 58 56 25 6 116 106 85 65 35 59 92 119 111 51 37 27 35 28 42 61 60 37 42 33 19 12 37 64 32 17 5 327 319 311 318 334 318 327 318 312 318 313 318 314 309 309 305 313 313 304
21 30 358 359 82 56 16 28 4 15 99 106 89 103 144 148 86 76 15 341 45 56 43 24 35 48 29 20 12 11 13 328 332 352 331 327 312 318 317 316 310 307 307 310 306 304 304 307 304 306 305 305 317 318
32 22 16 350 11 20 54 319 70 117 82 78 75 45 37 27 65 79 97 34 27 29 25 18 11 360 5 338 341 331 295 327 334 306 301 312 302 308 305 297 307 307 301 299 304 301 300 300 302 308 308 304 304 310